Theta_e
303 303 303 303 305 306 305 306 306 306 307 308 307 307 309 310 313 313 315 316 316 317 319 321 323 325 327 328 329 331 331 333 333 335 336 336 337 337 339 338 339 340 340 341 339 336 338 338 338 339 339 337 336 334 334 334 335 334 334 334 333 331 331 333 333 333 329 327 329 329 329 331 331 331 330 329 329 330 331 330 329 329 330 331 332
302 302 302 301 300 300 302 305 304 303 304 305 305 306 307 308 310 312 313 314 314 315 316 318 321 323 325 326 328 330 330 330 330 333 333 335 336 336 337 338 339 340 339 340 339 339 337 337 337 337 337 336 336 335 334 331 333 334 333 332 333 330 328 331 331 330 325 324 322 323 324 326 326 327 327 329 330 331 331 329 329 329 329 331 332
298 299 301 301 301 301 300 300 304 304 304 305 305 305 306 306 307 309 311 312 313 314 314 314 318 321 323 325 328 328 330 332 331 332 333 333 334 335 335 336 337 337 338 337 337 338 339 338 337 338 336 334 333 334 333 332 332 332 332 330 329 331 330 332 334 332 326 328 327 323 318 318 321 322 326 327 327 328 329 328 328 329 329 331 331
296 297 298 298 300 301 300 299 300 302 304 304 305 305 305 305 306 306 307 309 310 312 313 314 315 318 321 322 326 328 327 329 331 331 332 331 331 333 335 335 335 335 336 336 336 336 336 336 337 338 337 336 334 333 333 332 333 331 331 330 330 326 326 328 331 331 327 324 317 318 320 318 314 317 320 324 326 326 326 326 328 328 329 330 331
295 296 297 298 298 299 300 301 302 301 302 303 305 305 306 305 305 306 306 307 308 310 312 312 312 312 313 317 319 322 325 325 325 325 327 328 328 329 331 333 333 333 334 334 334 335 336 336 335 336 335 335 334 333 333 332 332 331 331 330 329 327 325 327 328 329 329 329 323 318 316 314 314 316 319 319 324 324 325 326 326 327 327 328 328
295 295 297 298 298 299 299 300 301 302 302 303 304 304 304 304 305 305 306 306 306 308 309 310 309 309 308 308 308 311 312 317 318 319 323 325 325 328 330 331 332 331 332 333 333 333 334 335 335 334 334 334 333 333 333 333 331 330 330 330 329 330 327 325 323 328 329 329 329 324 320 315 314 316 316 310 323 323 324 324 325 326 327 327 327
296 296 296 296 296 297 297 298 298 298 299 300 301 302 303 303 304 305 305 305 307 307 308 308 308 308 308 308 308 309 310 313 318 319 322 324 327 327 327 329 329 329 329 331 331 332 333 334 335 335 334 334 332 332 332 331 331 330 330 330 329 329 329 324 322 321 325 326 326 326 324 323 323 317 312 315 312 318 317 320 321 323 324 324 324
293 294 294 294 294 295 294 296 296 296 297 298 299 299 299 300 302 303 304 304 306 308 307 308 307 307 308 308 308 308 310 312 316 319 322 323 323 325 326 326 327 328 327 328 330 330 330 332 333 333 332 333 331 332 332 332 331 331 331 331 330 329 327 323 320 320 319 320 323 322 323 324 324 323 322 317 315 313 315 317 319 321 322 323 323
292 292 293 293 293 294 295 295 296 296 297 297 297 298 299 299 299 300 301 303 304 306 306 307 307 307 308 308 307 308 310 312 314 319 320 322 322 323 324 325 325 326 326 327 328 329 328 329 331 331 331 331 330 331 332 332 331 331 330 329 328 326 324 323 321 321 320 318 322 322 322 321 322 322 321 320 315 313 311 314 316 316 317 320 321
292 292 292 293 294 295 296 296 296 296 296 297 297 297 298 298 298 299 299 300 302 304 305 306 307 307 306 307 307 308 309 310 312 313 317 319 320 321 321 322 324 324 325 326 326 327 328 328 329 330 330 330 328 329 330 330 330 330 329 327 325 324 324 323 322 322 321 321 320 320 319 320 318 317 317 317 316 315 311 313 315 315 313 316 319
290 291 292 293 294 295 296 295 296 296 296 296 296 296 297 298 298 298 298 298 300 301 303 304 306 307 306 307 307 307 308 309 310 311 313 315 316 318 320 321 322 322 323 324 326 327 327 327 327 328 329 328 327 328 329 329 328 328 328 327 326 324 323 323 322 323 322 321 321 320 319 319 317 316 316 316 315 314 313 312 313 314 313 311 315
289 290 291 291 292 293 295 294 295 295 295 295 295 295 296 296 297 297 298 299 299 299 301 302 304 306 307 307 307 308 308 308 308 308 310 313 315 315 318 320 321 322 321 322 324 326 326 326 327 328 327 327 327 328 329 329 328 327 325 325 325 324 324 323 323 322 322 321 321 321 321 321 320 318 319 318 316 315 314 311 311 311 312 312 315
288 289 290 290 291 291 292 293 294 294 294 294 294 294 294 295 295 296 297 299 299 299 299 301 302 303 305 306 306 307 308 308 308 308 310 311 312 313 315 316 318 319 319 320 321 324 325 325 326 326 327 327 327 327 327 327 324 323 322 323 322 322 322 323 322 321 321 320 320 322 321 320 319 320 320 318 318 316 313 308 309 311 307 309 314
287 288 289 290 290 290 292 293 293 294 294 294 294 293 294 294 294 294 295 298 299 299 299 299 301 302 304 305 306 307 307 307 308 308 309 310 311 311 312 314 315 316 317 318 321 322 323 323 325 326 327 327 327 327 326 325 324 323 323 323 322 323 323 322 321 322 322 321 322 320 319 319 319 320 319 319 316 313 310 308 308 311 310 308 312
287 287 288 289 290 290 291 292 293 294 293 294 294 293 293 293 293 293 294 296 298 299 299 299 299 301 303 304 306 307 306 307 307 308 309 309 310 310 311 312 313 315 316 317 319 319 320 322 323 324 325 325 324 324 324 323 322 324 322 322 321 322 321 321 321 321 320 320 320 320 319 319 319 319 318 318 317 315 312 311 310 307 307 307 307
286 286 287 288 289 290 290 291 292 293 293 294 293 293 293 293 293 293 293 294 296 298 299 299 299 300 301 302 304 306 306 307 307 308 308 309 310 310 310 311 311 313 314 316 317 317 318 319 320 322 323 324 324 323 322 321 322 321 320 321 320 322 321 320 321 321 320 320 320 320 319 319 319 318 317 317 317 316 314 315 313 309 305 303 307
286 286 286 287 288 290 290 291 291 293 293 293 293 293 293 293 293 292 292 294 295 296 298 300 300 300 300 302 303 304 305 306 306 307 308 308 309 310 310 310 311 311 313 314 315 315 316 317 318 319 321 322 322 322 322 322 320 319 318 318 318 320 319 320 320 319 319 319 318 319 319 318 317 316 315 315 316 315 316 316 315 312 310 305 303
286 286 287 287 288 289 290 291 291 292 293 293 293 293 294 293 293 292 292 292 293 294 297 299 300 300 300 301 302 303 304 306 306 306 308 308 308 309 309 309 310 311 310 311 312 313 314 312 315 316 318 320 320 321 321 321 319 317 318 317 317 317 317 317 318 317 317 318 317 317 318 317 317 314 314 314 315 315 315 315 315 314 313 308 307
285 285 286 286 287 288 289 289 291 292 293 293 293 293 293 293 293 293 292 292 293 294 295 297 300 301 301 301 302 302 304 305 306 307 307 307 307 308 308 308 309 310 309 310 310 311 311 312 312 314 315 317 318 319 319 319 318 316 317 316 316 316 315 315 316 316 316 316 316 315 315 315 315 313 313 314 315 315 314 314 314 314 313 311 309
284 285 285 285 286 287 288 289 290 291 292 293 293 293 293 293 293 292 292 293 293 293 294 295 298 300 301 301 302 302 303 304 305 306 306 306 307 307 307 308 308 309 309 310 309 309 310 311 311 312 313 315 316 317 317 318 317 315 316 315 315 315 314 314 314 314 315 315 315 314 313 313 313 313 313 314 314 314 314 313 313 313 312 312 310
284 284 285 285 285 287 288 289 290 291 293 293 293 292 293 293 292 292 292 292 292 293 293 294 296 298 299 300 301 302 302 303 304 305 305 306 306 307 307 308 308 308 309 309 309 309 310 310 311 311 312 313 314 315 316 316 316 315 315 315 315 314 313 314 314 313 314 314 313 313 312 312 313 313 313 314 314 314 313 313 313 312 311 311 309
284 285 285 285 285 286 288 289 290 291 292 292 292 292 292 292 292 292 292 291 291 292 293 293 295 297 299 300 301 301 302 303 303 304 304 305 306 306 307 307 307 308 308 308 308 309 309 310 310 310 311 312 312 313 314 314 314 313 314 315 314 313 313 314 314 313 313 313 313 312 312 312 313 313 314 313 312 312 312 311 311 311 310 310 311
284 284 285 285 285 285 287 288 289 290 291 292 292 291 291 292 292 292 291 291 291 292 293 294 294 296 298 300 300 301 302 302 303 303 303 304 305 306 307 306 306 307 307 307 307 308 308 309 309 309 309 310 311 311 312 312 312 313 313 313 313 312 312 312 312 312 312 312 312 312 313 313 313 312 313 312 312 311 312 311 310 311 309 310 310
284 285 285 285 285 285 286 287 289 290 290 291 291 291 291 291 291 291 290 290 290 291 292 295 296 296 298 300 300 300 301 301 302 302 303 304 305 305 306 306 306 307 306 306 307 307 308 308 309 309 309 310 310 310 310 310 310 311 311 312 311 311 312 312 312 312 312 311 311 312 312 312 311 311 311 310 311 311 311 310 310 310 309 309 310
283 284 284 284 284 284 285 287 289 289 290 290 290 290 290 290 291 290 290 290 290 291 292 293 295 296 298 299 300 300 300 301 301 302 302 303 304 304 305 305 306 306 306 306 306 307 307 307 308 308 309 309 309 309 308 308 308 309 309 309 310 309 310 311 311 311 307 311 311 311 311 312 311 310 309 310 310 310 310 309 309 310 309 310 310
282 283 283 282 283 284 285 287 289 289 290 290 290 290 290 290 290 290 290 289 289 290 290 291 293 295 296 298 298 299 300 300 300 301 302 303 303 304 304 305 305 305 306 306 305 306 306 307 307 308 309 309 310 309 309 308 308 308 308 309 309 308 309 310 310 311 310 311 311 311 311 310 310 309 309 310 310 310 309 309 309 309 309 310 310
281 281 282 282 282 283 285 288 289 289 289 289 289 289 289 289 289 290 290 289 289 289 290 290 291 292 295 296 297 297 298 299 300 300 302 302 303 303 304 304 304 305 305 305 305 306 306 307 308 308 309 309 309 309 308 308 308 308 308 308 308 308 309 309 309 310 310 310 310 310 310 310 309 309 309 309 309 309 308 309 309 309 309 309 308
281 281 280 280 281 282 285 288 288 288 289 289 289 289 289 288 288 289 289 288 289 288 289 289 290 290 291 293 295 297 298 299 300 300 300 301 302 303 303 304 304 304 305 305 305 305 306 307 307 308 308 309 309 309 308 308 308 308 308 308 308 307 308 309 309 309 309 309 310 310 310 310 310 310 310 310 309 308 308 308 309 309 309 308 307
280 280 280 280 281 283 286 287 288 288 287 287 288 288 288 288 289 289 288 288 288 288 288 288 288 289 289 290 292 295 297 298 298 300 300 300 301 302 303 303 304 304 305 305 306 306 306 306 307 308 308 308 309 309 309 308 307 307 308 308 308 307 307 307 308 308 308 309 309 310 310 310 309 302 300 302 303 302 309 307 308 309 308 307 307
280 280 280 281 283 285 287 287 286 286 286 286 287 287 287 287 287 287 287 287 287 287 287 287 287 288 289 289 290 292 295 296 297 297 299 300 300 301 302 303 303 304 304 305 305 305 305 305 305 306 307 308 308 309 302 300 301 306 307 307 308 307 307 307 306 306 307 308 308 309 309 299 298 296 296 297 298 298 299 306 309 309 308 308 307
280 280 280 282 285 287 286 285 285 285 285 285 286 286 286 286 286 286 286 286 286 286 286 287 287 287 288 288 288 289 291 294 295 295 296 297 299 300 301 302 302 303 304 304 304 304 305 305 305 306 306 307 308 307 298 299 300 300 306 307 307 306 307 307 306 306 306 306 308 309 310 300 296 294 298 295 297 297 297 298 298 299 301 308 306
280 280 280 283 286 286 285 284 284 284 285 284 285 285 285 284 285 284 284 285 285 285 285 286 286 286 286 287 287 288 289 291 293 294 294 295 296 297 299 300 301 302 303 303 303 303 304 305 305 305 305 306 306 298 297 298 299 299 300 306 307 306 306 306 306 306 306 306 307 308 308 307 306 306 306 302 298 296 296 296 296 297 297 298 300
280 279 281 284 286 285 285 284 284 284 283 284 284 284 284 284 283 284 284 283 283 284 284 285 285 285 285 285 286 286 287 289 290 292 293 293 294 295 297 298 299 301 301 301 302 303 303 304 304 304 304 305 305 298 297 297 298 298 299 302 307 306 306 306 306 306 307 306 306 306 307 307 306 295 300 305 304 300 294 295 295 295 295 297 299
280 281 283 286 286 285 285 284 284 284 284 284 284 284 284 284 283 284 282 281 281 281 282 283 283 284 284 284 284 285 286 287 289 290 292 292 292 293 295 297 298 299 299 300 301 301 302 302 303 303 304 305 305 297 296 297 297 297 298 300 307 307 306 307 306 306 306 306 306 305 305 305 305 302 304 306 306 306 303 300 300 301 304 298 294
280 281 284 285 284 284 283 283 283 283 284 284 283 284 283 282 283 283 282 280 279 279 280 281 281 282 283 282 283 283 284 286 287 289 290 291 292 292 293 294 295 297 298 298 299 300 301 301 302 303 303 304 304 296 296 296 297 297 297 299 307 307 307 307 307 306 306 306 306 306 305 305 305 303 304 304 305 305 304 303 302 301 305 306 303
281 282 285 285 284 283 282 282 283 283 283 283 282 282 281 281 283 282 280 279 278 278 278 279 279 281 281 281 281 282 283 285 286 287 289 290 291 291 291 293 293 295 296 298 299 300 300 300 301 302 302 302 304 295 295 295 296 297 297 301 306 306 306 306 306 306 306 306 307 306 305 305 305 304 298 297 300 304 303 302 301 301 301 303 304
283 285 285 284 283 282 282 282 282 282 281 280 280 280 281 282 283 281 280 278 277 277 277 277 277 279 280 280 281 282 282 283 285 286 287 288 290 291 291 292 291 292 294 295 297 298 299 300 300 301 301 302 302 295 294 295 295 296 297 303 306 306 305 305 305 306 306 306 306 305 305 305 305 305 298 297 298 298 304 303 303 302 301 300 299
285 285 284 282 281 281 281 282 281 280 279 279 279 280 281 281 281 280 279 278 277 276 276 276 276 277 278 279 280 281 282 283 283 284 286 287 288 290 291 291 290 291 292 294 296 297 298 299 299 300 301 301 301 295 292 294 295 296 297 304 305 305 305 304 304 305 305 305 304 294 297 305 304 304 296 296 297 299 303 302 302 300 299 299 298
285 283 281 280 280 281 281 281 280 278 278 278 278 279 280 279 279 279 278 277 276 276 276 275 275 276 277 279 280 281 281 282 282 284 285 285 286 288 290 291 291 291 291 293 294 295 297 298 299 299 292 298 301 294 291 294 294 295 298 305 305 305 303 303 303 303 304 305 304 295 293 299 302 301 296 297 296 298 304 303 302 300 299 300 301
283 282 281 280 280 280 279 279 277 277 277 277 278 278 278 278 277 277 276 275 275 275 275 275 275 275 277 278 280 280 280 281 283 284 285 285 286 288 290 290 291 291 290 291 292 292 294 296 297 297 297 298 299 297 293 293 294 294 296 303 305 304 302 302 302 301 300 301 301 299 294 296 298 298 296 296 296 297 303 303 303 301 300 299 303
281 280 280 280 280 280 279 278 277 276 276 276 277 277 276 276 276 275 274 274 274 274 274 274 275 276 276 277 278 279 280 281 283 283 284 285 286 288 289 290 290 291 289 289 290 291 292 293 294 295 296 297 299 297 293 292 293 294 295 298 305 304 303 303 302 299 300 301 300 299 299 295 296 296 295 295 295 295 297 303 303 303 303 302 298
280 279 279 279 279 279 278 277 275 275 275 275 275 275 275 275 275 273 273 274 273 273 273 273 274 275 276 276 277 279 280 282 283 283 283 284 286 287 289 289 289 289 289 289 289 289 290 291 292 293 294 296 294 291 294 291 293 293 295 295 302 304 303 303 302 300 300 301 301 301 300 295 294 295 294 294 295 295 296 298 302 299 297 294 298
277 277 277 278 278 277 277 276 275 275 274 274 274 273 273 273 272 272 273 272 272 272 271 272 273 274 275 275 276 277 279 281 282 283 283 283 285 286 287 287 287 287 288 288 288 289 289 290 291 292 292 293 294 292 290 292 291 293 294 295 296 299 298 302 302 299 300 301 301 300 297 291 293 294 294 294 295 295 294 299 297 296 294 294 294
277 277 277 277 277 277 277 276 275 274 273 273 272 272 272 271 271 271 271 271 270 270 270 271 272 273 273 274 275 276 278 280 281 282 283 283 283 284 286 287 287 287 287 287 288 288 288 288 289 290 290 291 291 293 289 289 290 291 293 294 295 296 296 301 302 301 301 301 298 297 295 291 292 292 293 294 294 293 295 296 295 294 292 291 294
276 276 276 277 276 276 276 275 274 273 273 272 272 271 270 269 270 270 269 268 268 268 269 269 271 272 272 273 274 275 277 278 279 281 282 283 283 283 284 286 287 287 287 287 288 288 288 288 289 289 290 290 291 292 292 290 288 289 292 293 294 295 295 295 298 301 300 299 295 294 292 291 292 292 292 293 292 292 293 294 293 291 289 293 292
275 275 275 275 275 275 275 274 273 272 271 271 270 270 268 268 268 267 267 266 266 266 267 268 269 270 271 272 272 274 276 277 278 280 282 283 282 283 283 285 286 286 287 286 287 288 288 288 288 289 290 290 290 290 291 291 288 288 289 292 293 293 291 292 294 297 292 293 293 292 291 290 290 291 292 292 291 292 291 291 290 289 293 293 292
273 272 273 273 274 274 274 273 271 271 270 270 269 269 268 267 266 266 265 265 265 265 265 267 267 269 270 271 272 273 274 275 277 278 280 282 283 283 283 283 285 286 286 286 287 287 287 287 287 288 289 289 289 289 290 291 291 291 291 291 292 292 289 290 292 293 291 293 292 291 292 290 291 290 290 290 290 289 290 291 291 292 293 293 292
271 270 271 272 271 272 272 271 270 270 269 268 267 267 266 264 264 263 263 263 264 264 264 265 266 268 269 270 271 273 273 274 275 277 277 279 281 282 282 283 284 284 285 285 286 287 287 287 287 288 288 288 288 288 289 289 290 291 292 293 292 292 292 294 295 294 294 293 292 289 289 290 290 290 291 291 291 290 291 291 292 292 293 292 291
268 268 269 269 270 271 270 269 269 268 267 266 266 266 265 263 262 262 262 262 262 262 263 264 266 267 268 269 270 271 272 273 273 275 276 277 278 280 281 283 285 286 285 284 285 286 287 288 288 288 288 287 288 287 288 288 290 290 290 292 291 292 292 293 292 292 291 290 291 291 291 290 290 290 290 290 290 290 290 291 290 291 292 292 292
267 268 268 268 269 270 269 268 268 267 266 265 265 265 263 262 261 261 261 260 260 261 263 264 265 266 267 268 269 270 271 272 272 273 274 275 278 280 281 282 284 285 285 284 284 285 287 289 288 289 289 288 288 289 288 288 288 288 288 289 289 291 291 292 290 291 290 291 291 291 291 291 291 291 291 291 290 290 290 290 290 289 291 291 292
265 266 266 267 268 268 267 266 265 265 264 263 263 263 261 260 260 260 260 260 260 260 262 264 264 265 266 266 267 268 269 270 271 272 273 273 275 278 281 283 284 284 284 284 285 284 284 285 286 287 288 287 287 287 287 288 288 288 289 289 289 290 290 290 290 291 293 293 292 291 291 291 291 292 292 292 291 290 290 290 290 290 291 291 291
Wind_Speed
9 11 11 8 9 8 9 9 9 11 10 10 11 12 13 12 12 14 11 12 11 10 10 11 11 12 13 13 15 14 15 14 12 10 14 14 12 12 12 11 14 16 15 15 14 12 13 11 12 15 16 15 14 14 14 13 11 12 12 11 13 12 10 8 8 6 7 7 7 9 9 8 10 11 12 10 10 8 9 9 10 9 10 9 10
10 9 11 11 11 11 9 7 9 11 11 11 12 13 12 13 13 12 10 11 12 12 11 11 12 11 12 14 15 15 16 15 16 14 15 11 10 14 12 16 18 18 16 17 17 15 12 12 10 10 12 13 14 13 12 11 11 11 12 12 12 14 10 9 8 9 9 8 7 6 6 6 7 7 8 9 9 10 11 12 10 10 10 9 9
14 15 13 11 14 14 12 11 8 11 12 10 12 12 11 11 12 12 11 12 12 13 12 12 11 11 12 11 10 12 15 16 14 13 15 16 14 14 16 16 16 18 18 16 13 12 13 16 15 11 10 8 9 11 11 12 12 14 14 15 11 11 10 7 11 11 9 7 9 10 11 6 5 6 9 12 11 12 11 12 11 11 12 10 10
17 17 17 15 14 13 12 11 10 7 8 10 10 10 10 10 11 11 11 12 11 11 11 12 11 11 12 12 10 11 10 11 9 9 13 16 13 14 15 16 13 13 17 15 11 12 12 13 15 14 12 11 8 10 14 15 14 13 12 14 14 10 8 9 9 11 12 6 7 9 7 8 11 11 10 8 11 13 11 10 9 11 13 13 11
16 17 17 17 16 13 10 8 7 7 7 9 8 8 7 12 12 12 12 12 11 11 11 12 11 11 10 9 10 9 10 9 11 11 13 13 14 16 16 14 15 13 11 16 15 14 11 10 11 12 13 13 11 13 14 16 16 11 13 13 13 11 11 10 7 10 12 13 11 8 8 8 13 7 1 6 6 8 10 11 9 10 12 11 9
17 16 14 13 13 13 13 12 12 10 11 8 8 10 11 11 11 12 12 11 12 13 13 11 11 12 11 11 12 12 13 12 15 16 13 15 19 16 12 16 15 14 15 16 15 12 14 13 12 10 10 10 11 13 16 13 13 14 16 15 14 13 13 12 11 10 13 16 15 14 9 6 4 5 5 6 5 4 4 7 10 11 11 10 10
6 7 9 10 10 10 10 9 10 10 10 10 10 10 10 11 12 13 12 12 12 13 13 12 13 12 14 14 14 14 15 14 13 14 14 14 15 16 16 15 14 14 14 15 16 15 15 15 13 12 11 10 10 12 13 12 11 12 11 14 14 12 13 15 15 12 9 12 13 16 16 11 4 3 7 5 8 4 3 5 6 7 8 9 10
7 7 7 8 8 9 9 10 9 10 11 10 9 9 11 12 12 12 12 12 11 11 13 13 13 13 14 16 15 16 16 14 13 14 14 14 16 17 13 13 14 14 13 14 16 16 14 15 15 12 11 11 10 11 10 9 10 11 11 15 13 13 15 15 16 14 12 12 13 16 15 14 13 11 8 6 6 8 5 2 2 5 8 9 10
8 7 8 8 9 9 9 10 10 10 9 10 10 10 10 10 11 12 12 12 12 14 13 14 14 14 14 14 15 14 14 13 12 12 13 13 16 15 15 16 14 14 14 15 15 17 14 14 13 11 11 11 11 12 12 13 14 14 14 13 14 15 15 15 14 12 12 13 11 13 14 14 10 9 10 9 10 10 11 9 6 4 5 7 8
7 7 7 7 8 8 9 9 9 9 9 9 10 10 10 9 10 11 12 11 12 14 14 15 16 14 15 16 17 15 13 13 13 14 14 13 14 16 18 17 15 15 16 17 16 18 15 14 12 13 13 12 11 12 13 16 16 16 15 15 17 16 14 14 14 11 11 11 12 11 13 9 7 7 8 8 8 9 11 10 8 10 11 8 7
5 6 7 7 7 8 9 10 10 10 9 10 10 11 11 10 10 11 11 10 12 13 14 16 15 15 16 17 18 17 16 15 14 16 14 14 15 15 15 16 18 19 17 17 19 19 18 15 14 14 13 12 13 14 15 16 17 15 11 15 16 19 14 15 14 13 10 11 13 10 11 12 12 9 9 8 9 9 9 13 15 12 10 8 7
6 6 8 9 11 12 12 13 13 13 12 12 11 11 11 11 11 13 12 11 11 12 14 15 14 15 16 17 18 17 17 14 17 18 16 16 16 15 13 13 15 16 17 18 19 19 16 19 18 16 14 14 15 14 15 16 16 15 14 14 15 18 16 14 13 15 16 12 13 11 10 10 11 11 11 12 12 13 13 11 8 6 7 7 4
7 8 8 9 10 11 13 13 14 14 13 14 13 12 11 11 13 14 14 12 11 12 13 14 15 16 15 16 17 15 17 18 17 17 16 15 13 14 14 14 13 12 16 20 20 22 19 20 19 19 16 16 16 16 16 18 17 17 17 16 16 17 17 16 14 16 16 14 12 11 11 10 7 6 10 10 8 7 8 9 8 6 7 5 2
7 7 8 9 10 10 10 11 11 11 13 13 12 12 11 11 12 13 15 14 13 12 12 14 15 15 15 15 15 15 16 17 16 16 16 15 13 13 15 14 14 15 14 15 15 19 21 21 21 21 21 20 20 20 19 19 19 15 14 15 17 14 13 16 16 14 14 14 12 11 11 10 9 10 12 10 8 8 9 9 7 6 6 7 5
8 9 9 9 9 10 10 10 10 10 12 11 11 12 12 12 12 14 15 15 14 13 11 13 13 14 15 15 15 14 15 15 15 15 14 15 14 14 13 13 13 13 13 13 14 16 16 14 14 17 21 21 21 19 18 18 18 13 12 14 16 13 15 15 13 12 13 14 14 12 10 11 11 11 11 10 8 9 8 8 8 8 6 7 7
8 9 9 9 9 9 9 10 10 10 12 10 12 11 12 13 13 13 14 14 14 14 13 12 13 12 14 16 17 16 14 14 14 13 14 14 15 15 14 14 13 11 10 10 11 12 13 14 14 16 16 15 16 19 20 17 15 13 11 12 15 7 14 17 11 12 14 14 14 13 12 13 12 11 11 9 8 8 8 8 7 8 7 7 6
8 8 8 9 9 9 9 9 10 10 11 11 12 12 12 13 13 15 14 13 14 14 13 12 12 13 15 15 16 16 17 17 16 16 16 15 14 14 13 13 12 11 10 9 10 12 12 13 13 14 14 14 15 18 18 14 13 13 13 15 16 12 13 14 10 13 15 14 14 16 14 12 12 12 11 9 7 8 8 8 8 8 7 7 6
8 8 7 8 8 9 9 8 9 9 9 10 12 12 10 11 13 14 14 15 14 14 13 12 13 12 13 15 16 16 16 17 17 16 15 14 15 13 12 12 13 12 11 10 9 11 11 13 12 12 13 14 14 13 14 14 14 14 17 16 16 15 16 13 10 12 14 13 13 13 13 12 12 11 10 9 8 9 9 8 9 9 7 8 7
8 9 9 9 9 9 10 11 12 13 12 11 10 10 10 11 11 11 14 14 14 11 12 11 12 10 9 12 14 15 16 16 15 15 14 15 17 15 15 14 12 10 9 8 10 12 12 12 13 13 12 13 13 12 14 14 16 16 16 15 15 15 14 15 13 10 10 11 12 13 12 11 11 12 11 10 9 10 9 9 9 7 8 9 9
9 9 10 10 11 11 11 12 13 14 13 11 11 10 11 10 11 12 12 13 13 13 12 12 12 11 11 12 13 14 15 15 15 15 15 17 16 15 15 13 12 8 10 11 11 12 12 13 13 14 14 14 14 13 12 14 15 17 16 16 16 16 15 15 12 10 9 11 13 13 13 12 12 11 10 9 10 10 10 10 8 8 9 9 9
9 9 10 11 11 12 11 10 11 12 10 9 9 11 10 10 11 12 14 14 15 14 12 11 11 11 13 12 12 14 15 14 15 15 16 16 15 14 14 13 10 10 10 11 12 12 13 14 14 14 14 13 13 13 12 13 14 15 16 14 13 17 16 13 13 14 13 13 14 14 14 13 11 11 9 10 10 10 10 9 9 9 9 9 9
8 9 9 10 11 11 11 9 9 11 11 12 11 10 12 12 12 12 12 12 14 14 13 12 11 11 13 12 12 12 14 13 15 15 15 15 15 14 13 12 13 11 10 10 12 10 11 13 14 14 14 14 14 14 13 12 12 16 15 7 11 15 14 15 15 16 15 13 14 13 12 12 12 12 10 10 10 10 10 10 10 9 9 9 9
8 8 8 9 10 10 10 10 11 12 11 11 10 10 11 12 12 12 12 14 13 13 13 12 11 11 12 12 12 11 12 14 15 13 15 14 14 13 12 12 12 10 10 12 12 11 11 13 12 12 13 14 14 14 13 14 14 15 13 12 11 14 16 17 15 12 13 12 12 12 12 12 11 13 11 10 10 10 10 10 10 9 10 10 9
8 7 7 8 9 9 8 9 9 10 10 10 9 10 10 10 11 11 12 14 14 13 13 14 13 13 13 12 11 11 12 13 14 12 14 14 12 12 11 12 12 9 10 10 11 11 11 13 13 13 14 13 13 13 13 13 13 12 11 12 12 13 12 13 13 13 13 13 13 12 12 12 13 10 11 10 9 10 10 9 10 10 9 10 9
10 9 9 10 10 10 9 8 9 10 9 9 9 9 10 11 10 11 12 12 12 12 13 13 13 14 12 11 12 12 11 12 13 12 13 13 13 12 9 11 11 11 11 9 9 9 11 13 13 15 15 14 14 12 11 11 12 16 16 11 12 11 11 12 12 13 14 13 12 12 12 11 10 9 9 10 11 13 11 11 10 9 9 8 6
10 10 10 11 10 9 9 8 9 10 9 9 9 9 9 10 10 10 11 12 12 11 12 13 13 13 12 12 11 11 12 13 13 12 13 12 12 11 10 9 11 11 10 10 10 10 12 13 14 14 15 14 14 13 13 13 13 12 14 8 9 10 11 12 11 11 12 11 11 11 11 11 11 11 11 11 11 13 12 11 11 10 10 9 9
9 9 9 11 11 11 10 8 8 9 9 8 9 9 9 10 11 11 10 11 11 11 12 12 12 12 12 12 11 11 11 12 12 12 11 10 10 10 9 10 9 11 10 11 11 11 11 12 13 14 14 14 14 13 13 13 13 11 12 12 11 11 10 9 9 10 10 10 11 10 11 11 12 12 11 13 14 13 12 11 11 12 11 10 9
9 10 10 10 11 10 8 8 8 7 8 9 9 8 9 10 11 11 11 11 10 11 12 12 12 11 11 12 11 10 10 11 11 11 11 10 10 9 9 9 10 12 12 12 11 12 10 10 12 13 13 12 12 12 13 12 12 12 11 11 11 10 11 10 10 10 10 10 11 11 11 11 12 12 12 12 13 13 11 12 12 10 9 9 8
10 10 10 10 9 8 9 8 8 8 8 8 9 9 9 10 11 11 11 11 12 11 12 12 12 11 11 11 12 10 8 10 11 12 11 10 9 9 8 9 9 10 8 10 10 10 11 12 11 11 11 10 11 12 11 12 13 11 8 10 11 11 11 11 11 11 10 11 11 10 11 12 13 13 15 11 12 10 10 12 11 10 9 9 8
10 10 10 9 8 8 7 6 7 7 8 8 8 9 9 11 11 12 12 11 12 12 12 12 12 12 11 11 12 11 9 8 9 10 11 11 9 8 8 8 8 9 8 8 9 10 10 11 11 11 10 8 10 8 13 19 17 13 8 8 7 9 11 11 12 13 13 12 12 11 10 15 15 15 14 14 13 13 12 11 11 13 12 11 10
10 10 9 9 9 7 5 5 7 7 8 7 8 9 9 9 10 11 12 12 12 12 12 11 12 12 12 11 11 11 10 9 7 8 9 11 10 8 7 8 8 8 9 7 7 10 10 10 10 10 11 10 9 9 17 17 19 19 13 10 11 10 11 11 11 14 15 15 13 13 12 12 13 12 13 14 13 13 13 12 11 11 12 12 11
9 8 9 9 8 7 7 8 8 8 7 7 9 10 9 10 10 11 11 11 11 12 12 12 12 13 13 12 11 12 12 10 8 7 7 8 9 8 8 7 7 8 7 7 9 10 9 10 9 10 10 9 8 12 15 17 19 19 17 12 8 9 9 10 10 11 10 12 14 13 12 10 10 12 11 12 13 15 14 13 12 12 12 11 9
8 8 9 8 6 6 6 7 7 6 7 8 9 9 9 9 10 10 9 10 11 11 12 12 12 13 13 13 12 12 12 11 9 8 7 6 7 8 8 7 8 7 7 8 9 9 9 9 10 11 11 9 8 12 15 18 19 20 20 15 8 10 11 13 12 11 11 13 13 11 11 10 10 14 12 9 10 12 12 14 14 13 13 13 13
7 8 8 6 4 4 5 6 7 7 8 9 9 9 8 8 8 8 9 10 11 12 12 12 12 12 13 14 13 13 13 12 11 9 7 6 5 7 8 7 7 6 7 8 8 9 9 9 10 11 10 9 10 12 17 18 19 20 19 16 9 10 10 10 11 11 11 15 15 14 11 11 10 12 11 11 11 10 9 9 10 9 9 10 10
8 9 7 4 4 5 5 5 5 7 8 9 9 8 8 7 7 8 8 10 10 11 11 12 13 13 13 13 14 13 13 13 12 10 8 7 6 6 7 7 7 8 9 10 10 9 9 9 9 9 9 9 9 14 17 19 19 20 20 17 10 9 9 9 9 9 10 10 12 12 14 13 12 12 12 14 11 10 11 9 9 9 10 9 8
8 8 6 5 4 4 5 4 4 6 7 7 9 9 9 8 7 7 8 9 9 10 11 12 13 13 13 14 14 14 13 13 13 12 9 8 6 5 5 6 6 6 7 8 9 8 9 10 10 11 12 12 9 14 17 19 20 20 20 14 12 14 11 11 10 9 10 9 10 11 11 12 11 12 14 17 14 11 11 11 11 10 8 7 8
8 6 5 3 3 3 3 3 3 4 6 7 8 8 8 8 7 6 7 8 9 9 11 12 12 13 14 14 14 14 14 13 13 12 11 9 8 7 6 4 5 7 7 8 8 9 9 10 12 12 14 14 12 12 17 18 19 20 17 11 12 12 13 14 14 11 9 9 11 11 11 11 11 12 14 18 17 15 10 12 11 10 8 8 6
7 6 5 4 3 2 1 2 3 4 6 7 7 7 7 7 7 7 8 8 8 10 10 11 12 13 14 14 14 13 14 13 12 12 12 10 9 6 6 5 4 6 7 7 8 8 9 9 10 12 13 13 11 11 16 17 19 21 18 13 13 13 13 13 11 11 10 10 11 15 14 12 11 11 15 17 17 15 11 11 11 10 10 9 7
8 8 7 6 4 3 2 1 3 6 7 8 8 7 6 6 7 7 8 9 9 11 11 12 12 13 14 14 13 13 13 13 13 12 11 11 9 8 7 6 6 4 6 6 6 7 8 9 9 10 9 12 10 11 16 18 19 20 18 13 14 14 13 13 10 10 10 9 10 12 15 14 15 14 18 19 20 17 12 12 11 10 11 11 9
7 6 5 5 5 6 4 3 3 6 7 8 8 6 5 5 6 6 8 9 11 11 11 11 12 12 12 13 12 13 13 13 13 13 11 10 9 8 7 6 6 5 4 4 5 6 8 8 7 7 8 10 9 8 13 18 19 20 21 15 14 13 11 12 11 10 10 8 9 9 13 17 15 16 19 20 20 20 13 11 10 10 11 12 9
9 7 7 6 6 5 5 5 3 5 6 7 7 6 6 6 6 6 8 9 11 11 12 12 11 12 12 13 12 12 13 13 12 12 12 11 9 8 7 7 7 6 4 4 5 6 7 6 6 6 7 8 9 8 11 18 19 20 22 18 13 12 12 11 11 10 10 10 10 10 9 15 17 17 18 20 19 19 14 11 11 11 11 9 10
7 6 6 6 6 7 7 6 4 4 6 6 6 6 6 7 6 8 9 9 10 11 11 12 12 12 12 13 13 12 12 11 11 12 12 11 9 8 7 6 5 5 5 5 4 4 5 6 4 5 6 7 6 9 9 15 18 19 20 19 12 12 11 11 11 11 11 10 11 10 10 14 18 17 17 19 20 19 17 9 11 12 12 15 12
7 5 3 4 5 6 7 7 5 4 5 5 6 6 6 7 8 10 9 9 10 10 10 11 11 11 11 12 12 14 12 10 11 11 12 11 10 8 7 5 5 4 5 5 4 3 4 5 5 4 4 4 5 5 9 11 15 17 19 18 14 10 14 11 10 12 12 11 9 10 8 13 17 17 17 18 18 19 15 10 13 12 15 17 13
6 5 4 3 4 4 6 7 5 5 4 5 5 5 6 7 9 10 10 9 9 10 10 10 10 11 12 12 12 12 12 11 12 11 11 10 10 9 8 5 5 4 4 4 4 3 3 4 5 4 3 3 3 4 5 9 11 15 15 17 15 12 11 10 10 10 10 10 9 9 10 16 17 16 16 16 17 16 11 13 13 14 15 13 8
5 5 4 3 3 3 4 5 6 6 5 5 4 5 6 8 9 9 10 10 10 11 10 10 11 12 11 12 12 11 11 11 12 11 11 10 10 9 8 6 5 5 5 4 5 4 3 4 4 5 5 4 3 4 5 8 11 12 15 16 15 13 11 11 9 8 9 8 10 13 15 17 17 16 16 16 14 15 16 14 14 15 13 8 7
6 5 4 3 3 3 3 4 6 8 7 6 5 4 5 6 9 9 9 9 10 10 10 10 11 11 11 12 13 12 11 11 12 11 10 8 9 9 8 8 6 5 5 5 4 4 4 4 5 5 5 5 3 3 4 5 6 8 10 15 17 14 12 12 11 8 11 13 14 15 17 17 16 14 11 8 7 10 14 15 15 14 9 8 7
6 5 4 3 3 3 4 5 7 8 8 7 6 5 6 5 6 7 9 10 10 9 9 10 11 11 11 10 12 10 12 11 11 11 10 9 7 7 8 7 7 6 5 5 5 3 4 4 4 4 4 4 4 4 4 4 5 6 6 8 11 11 11 11 8 6 9 9 12 12 10 12 11 15 14 12 10 10 10 9 8 9 7 8 8
7 7 6 6 6 5 5 6 7 8 8 7 7 7 8 8 7 8 7 7 8 8 9 10 11 10 9 10 10 13 13 11 11 11 10 10 8 7 7 7 7 7 7 6 6 5 5 5 5 4 3 3 3 3 3 3 5 3 5 6 7 7 8 8 7 5 6 7 7 7 8 6 6 6 6 4 4 5 7 8 7 7 6 6 9
8 8 8 7 6 6 6 6 7 7 7 6 7 7 9 10 10 10 10 9 8 9 9 9 9 9 9 9 9 10 10 11 12 11 9 9 9 9 8 8 7 6 6 7 7 7 6 4 4 5 5 5 5 5 7 5 4 6 6 6 7 8 8 8 10 12 6 5 6 6 6 6 7 8 7 7 6 6 5 7 9 8 7 7 6
7 7 8 7 7 6 6 6 6 6 6 7 7 7 8 9 10 10 10 10 11 11 11 10 9 9 9 10 10 9 10 10 11 11 13 11 9 10 10 7 8 9 9 11 10 9 7 5 4 5 4 5 6 6 7 10 9 7 8 8 7 5 5 5 10 17 11 7 7 7 7 7 7 7 8 8 8 7 7 7 7 8 7 8 7
8 7 8 8 7 6 6 6 6 6 6 6 6 7 9 10 10 10 10 10 10 9 9 10 11 9 10 11 10 10 10 10 10 11 10 11 12 9 7 11 10 10 12 13 12 12 14 13 8 6 5 8 9 4 7 11 12 13 13 11 9 8 8 9 13 10 8 9 8 8 7 7 8 9 9 10 9 9 8 8 8 8 7 8 9
Wind_Direction
275 278 282 277 265 242 245 246 246 245 239 230 233 231 225 223 219 222 218 216 219 219 220 218 216 220 224 224 225 223 227 225 225 221 228 228 220 218 216 216 223 224 220 218 218 214 206 204 214 202 195 197 201 202 199 200 199 203 215 221 227 223 223 227 221 213 229 233 222 229 237 240 244 234 233 224 220 225 236 248 253 252 247 244 243
272 263 267 263 264 263 249 231 236 248 242 227 232 234 229 226 226 227 216 218 218 217 218 219 220 218 214 219 221 223 225 224 227 221 223 220 216 218 215 220 220 220 217 218 218 216 211 203 194 213 205 195 197 198 201 200 203 206 214 228 223 227 226 209 208 182 215 216 226 239 233 227 227 224 226 228 226 233 240 248 249 246 244 244 244
270 271 265 255 259 260 259 252 237 235 251 240 237 242 243 238 235 233 226 222 221 216 218 222 219 222 225 229 215 227 229 230 228 223 217 216 218 219 221 224 224 224 222 218 217 216 219 220 217 204 206 208 195 191 187 197 201 206 209 224 221 220 226 200 210 203 231 240 256 271 261 256 222 218 232 237 239 247 249 249 244 242 241 238 241
269 267 268 267 259 250 249 258 258 261 260 264 259 248 249 248 247 241 239 237 235 226 223 231 232 230 230 236 233 231 232 223 222 224 224 222 220 222 224 223 218 221 223 216 212 214 216 221 221 214 203 206 208 203 203 209 211 211 207 220 223 218 218 213 207 217 227 209 221 217 242 242 255 235 230 216 219 239 236 239 241 244 246 247 249
263 265 263 262 266 273 280 278 280 267 262 266 265 253 243 249 247 244 244 243 241 238 230 231 239 244 241 246 246 251 243 235 226 224 218 212 220 220 221 218 221 220 214 216 212 214 210 209 215 213 208 207 208 213 215 216 216 202 201 206 211 216 219 226 208 205 210 213 226 223 230 238 240 245 265 257 215 234 238 237 236 237 242 243 244
247 258 274 287 296 301 305 307 301 293 285 276 260 259 260 262 253 246 245 244 241 237 234 228 227 231 229 229 230 229 234 223 224 227 213 213 218 219 218 215 211 208 209 213 209 209 214 211 210 208 204 198 200 210 217 217 213 205 204 206 210 210 222 231 228 209 217 218 224 237 244 261 254 217 217 251 148 234 262 244 239 238 244 248 249
291 285 294 309 317 322 325 331 331 321 324 324 314 303 285 267 262 255 250 246 238 234 230 226 228 228 226 226 225 225 226 228 225 224 224 221 222 218 218 211 206 205 209 210 212 210 215 214 211 210 205 200 196 199 208 212 208 203 193 194 202 209 218 236 235 225 212 231 228 231 237 238 252 199 226 245 266 168 190 223 231 237 243 244 244
334 341 3 354 352 351 343 340 336 330 324 322 317 313 305 297 283 269 261 254 245 233 231 227 228 226 225 225 226 228 227 228 218 218 219 221 224 222 216 215 207 206 206 208 210 210 210 215 213 208 203 204 193 196 196 194 200 200 195 196 200 212 223 227 233 230 214 223 221 232 233 237 236 238 251 262 265 278 248 163 256 243 233 235 236
25 22 15 4 357 349 343 338 331 330 330 325 320 314 306 301 295 287 276 266 259 249 241 232 228 230 227 227 229 229 231 232 227 221 214 214 217 220 218 218 213 208 207 206 207 208 203 210 207 204 202 201 200 203 204 201 205 207 207 209 212 220 221 223 229 226 218 226 203 215 222 229 236 240 237 229 246 255 260 253 234 174 234 234 228
31 27 17 7 360 350 344 334 338 342 334 327 325 319 315 309 301 295 287 278 266 257 247 239 231 228 229 230 229 229 224 227 226 227 222 213 214 215 221 221 216 215 211 208 206 208 204 202 204 202 199 199 199 203 205 216 220 225 226 221 221 216 217 220 223 223 220 219 216 215 214 215 209 204 206 211 234 235 252 256 256 252 249 239 215
25 19 17 17 9 2 352 351 349 352 349 345 336 330 323 318 311 304 295 285 278 270 258 250 239 231 230 230 229 227 223 221 221 226 227 221 217 215 213 216 221 221 215 212 210 208 207 198 201 201 198 200 201 202 203 209 217 218 210 213 217 219 214 216 217 219 218 217 215 208 210 208 210 210 211 200 208 228 240 252 257 252 255 266 246
20 20 16 11 11 8 1 359 358 354 355 353 345 338 332 325 322 315 310 299 285 273 266 258 249 238 234 232 230 228 222 220 220 223 219 220 216 216 212 212 214 217 218 215 210 206 201 203 201 200 199 200 203 206 208 212 216 213 215 214 217 219 219 216 215 217 217 220 216 211 213 209 208 215 222 225 225 234 242 249 243 245 252 242 249
22 19 15 14 15 5 0 354 353 356 354 349 346 342 336 331 328 322 316 314 301 290 275 264 254 246 239 234 232 230 227 226 226 224 219 219 214 212 211 212 208 204 209 218 215 206 203 204 201 203 201 200 204 207 211 213 217 214 215 213 214 213 214 214 215 218 215 214 213 214 222 223 223 220 227 222 219 220 227 243 241 230 248 254 200
21 18 14 14 9 4 356 352 351 347 346 346 346 346 342 335 333 326 319 317 309 300 288 276 261 252 246 240 234 230 230 228 228 229 225 223 217 208 210 212 210 208 201 202 201 205 208 209 206 203 203 202 203 206 208 212 211 206 203 208 212 211 211 214 217 216 213 210 206 209 216 221 223 224 231 228 213 212 224 227 233 219 226 259 275
23 12 12 5 359 358 352 350 347 343 341 341 344 345 343 340 337 332 325 320 317 310 299 285 274 262 252 244 239 233 231 230 229 228 226 224 223 216 209 211 213 210 206 203 200 195 198 201 204 206 209 209 205 204 207 208 208 204 204 208 213 207 210 210 209 203 209 207 209 215 214 220 226 227 228 225 212 218 221 218 214 225 219 230 248
18 11 2 358 353 348 349 350 345 343 340 338 342 344 342 340 337 334 327 321 317 315 307 295 283 272 260 250 243 239 235 234 234 227 227 226 225 220 214 211 213 210 207 199 196 194 194 199 200 201 199 193 193 200 202 200 196 201 205 206 208 192 208 209 204 207 212 206 207 212 219 224 224 225 224 222 209 213 218 219 212 222 238 245 214
15 9 354 350 346 346 346 345 344 341 338 336 340 340 335 335 337 335 333 327 322 319 313 304 294 282 268 256 248 240 235 232 232 231 227 225 228 226 219 215 212 208 206 193 191 195 197 199 201 200 199 196 190 195 195 188 188 203 205 207 208 200 208 207 203 212 215 213 215 214 217 222 224 225 224 222 208 210 217 222 216 220 221 238 251
7 2 355 351 343 340 341 338 337 334 328 330 336 337 331 332 335 334 336 333 327 322 317 311 304 292 278 266 254 245 240 236 233 233 231 228 227 229 224 220 217 210 206 208 199 195 201 200 205 203 201 199 194 187 187 186 186 201 206 206 204 202 204 207 204 207 207 207 209 209 212 215 218 218 217 210 202 208 216 219 221 225 223 231 238
3 359 354 352 348 343 341 339 341 340 339 335 329 328 329 332 331 335 333 331 326 320 317 313 308 297 285 276 264 253 244 240 236 232 230 230 230 229 227 222 220 201 190 183 191 195 197 196 202 205 204 203 197 192 188 186 188 201 204 205 201 198 201 203 202 192 194 196 201 203 204 210 214 212 209 203 205 212 216 219 221 218 225 229 241
353 354 350 348 346 343 341 341 340 340 336 330 326 325 328 330 335 336 333 336 333 329 324 317 314 308 299 286 273 260 251 243 237 232 230 231 231 228 224 215 209 191 196 187 190 193 190 191 197 201 202 201 197 195 188 191 190 204 203 206 199 194 197 198 194 185 185 194 201 204 202 205 204 203 202 202 206 213 217 220 217 218 223 227 231
348 346 344 346 344 340 339 337 334 332 328 323 326 326 326 331 338 342 341 339 339 331 325 318 313 310 304 294 283 271 255 246 241 234 233 233 231 227 225 223 211 200 189 189 193 190 186 193 194 197 197 194 193 193 192 192 194 199 203 192 176 191 193 194 192 189 192 197 203 206 205 202 193 197 199 201 207 207 209 216 217 216 221 222 225
338 337 335 341 338 336 333 331 330 334 332 331 331 331 333 339 340 340 340 341 338 332 326 317 313 309 308 301 291 277 265 252 243 237 234 232 230 228 222 218 214 205 185 186 191 183 191 193 196 200 199 196 194 193 189 188 190 198 197 164 171 186 190 193 193 191 193 199 204 200 195 193 195 201 200 201 204 208 206 210 212 215 222 225 220
326 327 328 331 333 328 325 325 329 332 329 327 331 334 332 332 337 338 338 336 335 329 324 317 313 312 313 310 300 286 273 261 248 239 236 232 230 227 218 211 213 208 190 197 194 188 188 194 194 195 195 196 195 193 190 194 198 197 191 183 182 182 190 193 186 181 181 185 191 197 196 189 196 202 203 203 205 206 208 210 212 213 222 225 223
321 314 319 324 321 320 319 324 327 331 332 329 328 327 329 330 332 334 335 335 335 334 333 333 325 317 317 318 311 297 281 268 257 247 240 233 229 227 217 213 211 197 194 198 192 189 190 193 197 195 195 191 191 189 185 190 190 188 187 182 179 182 184 184 181 184 183 185 191 191 194 188 192 190 196 200 200 205 205 207 211 216 218 221 220
319 316 318 320 319 319 320 320 327 329 326 325 325 326 326 327 330 335 330 333 333 333 334 333 330 326 323 329 327 317 298 279 264 256 247 238 231 227 214 208 209 203 197 192 193 192 193 196 198 197 195 195 193 189 184 189 192 201 200 186 181 179 181 182 181 184 185 181 184 186 182 180 179 189 192 198 203 204 208 209 208 209 210 209 208
311 312 317 320 319 318 318 324 326 329 325 319 320 321 322 323 324 331 330 331 334 333 334 331 335 331 328 332 335 332 321 303 282 264 253 244 236 228 216 208 209 207 191 193 193 195 201 200 200 197 195 197 195 193 191 188 187 191 198 178 174 181 185 183 180 180 180 180 181 185 184 180 182 189 195 200 203 205 205 205 208 210 209 210 211
305 305 310 315 317 320 323 323 321 317 320 318 317 319 320 322 322 328 331 328 329 334 333 334 333 333 329 333 335 332 323 317 305 288 269 252 239 229 216 210 206 208 198 199 201 200 202 203 200 198 197 194 194 192 190 188 187 182 184 180 180 184 182 175 175 176 174 176 181 183 183 181 186 192 195 201 203 204 204 201 206 211 211 208 205
300 305 309 313 317 320 316 315 317 313 314 317 317 318 322 324 322 324 329 331 332 333 332 332 331 331 331 329 330 331 329 322 313 303 289 275 256 236 222 215 207 208 206 200 198 202 202 202 203 202 198 192 190 189 189 186 185 184 182 178 178 178 179 176 172 176 175 178 183 186 187 187 190 194 197 198 198 200 198 204 207 203 197 197 194
295 300 310 312 314 310 311 316 314 311 314 317 319 324 330 330 328 323 326 332 333 330 331 331 328 328 331 327 322 323 330 331 324 315 300 281 269 254 234 221 211 211 206 205 201 200 200 204 207 202 197 192 194 193 189 181 184 182 174 172 174 175 174 173 172 176 178 181 186 189 190 193 193 197 197 189 188 184 189 197 200 192 189 187 194
292 299 306 305 300 298 304 304 306 312 318 323 324 330 333 333 332 330 327 332 334 332 330 331 327 324 324 327 324 319 324 334 337 329 317 303 283 264 248 233 223 215 211 204 206 207 207 204 203 203 201 194 199 196 194 192 192 190 168 175 157 170 170 171 175 183 186 189 191 190 193 193 189 190 184 186 186 188 193 197 196 195 194 198 201
286 299 301 299 298 302 304 308 314 320 324 328 328 328 327 327 329 331 332 333 332 328 328 328 326 322 321 324 326 324 321 326 337 334 330 320 302 282 259 244 234 223 215 207 205 209 210 208 205 201 201 201 202 198 194 194 193 190 184 175 177 174 172 174 175 180 185 187 192 195 196 185 182 180 182 183 185 188 191 194 200 201 204 202 197
283 291 291 292 300 308 320 321 320 322 326 330 328 325 329 333 332 334 333 330 331 331 325 324 325 325 323 325 328 325 321 321 330 336 329 322 312 301 280 258 242 230 222 213 211 209 205 203 206 207 207 203 201 194 186 193 192 191 189 182 171 172 175 179 176 179 178 180 186 191 193 181 183 182 179 183 187 188 187 191 194 192 190 192 196
277 277 279 284 292 303 312 314 315 321 323 326 324 323 328 331 330 332 334 334 335 332 329 329 329 329 327 324 326 327 322 319 321 323 326 323 314 303 285 268 250 237 223 216 217 208 207 206 204 207 208 203 205 189 187 190 191 191 189 185 179 176 179 186 183 180 176 183 184 183 185 181 190 177 178 181 182 189 192 194 199 197 198 197 198
263 262 266 272 280 294 307 310 314 318 324 324 325 322 322 325 321 332 343 339 334 332 331 329 331 331 329 328 324 326 324 319 317 319 324 327 319 304 294 282 274 262 242 232 221 214 207 203 205 208 207 203 203 187 190 191 192 190 188 188 180 179 182 180 180 176 181 185 184 180 179 187 179 172 184 186 188 183 176 186 192 191 194 200 201
243 251 248 241 261 283 296 314 325 330 331 330 328 327 326 330 336 344 351 342 338 330 328 329 327 327 326 327 324 324 323 322 320 317 319 321 321 312 300 287 272 257 243 235 228 219 218 211 206 206 207 204 205 190 192 192 192 189 188 189 188 175 179 178 177 175 174 175 177 179 183 184 182 176 187 186 184 182 188 191 192 195 206 199 197
231 234 223 216 231 258 290 311 328 334 332 333 329 329 329 332 337 349 349 344 339 333 331 330 327 327 325 324 323 320 320 321 322 320 317 320 323 315 306 304 292 275 260 252 248 235 224 216 210 211 214 215 206 189 195 194 191 189 185 189 194 188 185 187 185 180 180 174 175 174 177 181 182 184 184 179 180 176 184 188 182 193 196 194 203
224 207 201 184 193 242 279 307 332 342 342 337 333 330 329 331 344 350 349 344 343 342 336 331 323 325 325 322 321 319 317 318 320 320 320 320 320 317 310 300 286 279 266 254 245 236 233 226 219 214 213 214 208 191 195 194 191 187 182 194 188 186 188 188 189 185 179 178 180 178 179 183 182 187 175 177 175 172 179 184 187 186 184 187 199
177 173 171 164 175 194 254 322 345 356 349 342 336 334 331 338 344 346 347 346 349 343 335 328 322 320 319 318 316 316 314 315 316 319 321 319 315 308 309 303 277 280 275 264 252 244 237 230 223 218 214 215 211 191 193 194 191 187 185 188 190 188 188 185 184 183 184 184 183 178 180 186 185 188 173 180 179 177 185 181 180 182 184 191 191
168 172 172 169 165 159 146 71 6 357 355 343 339 335 338 348 347 346 346 349 351 341 335 328 320 316 315 313 313 312 310 311 311 314 320 319 314 311 308 304 282 251 268 281 270 259 247 236 231 225 211 211 211 190 191 192 192 188 187 191 187 188 182 184 179 182 187 184 182 180 183 190 193 184 178 186 184 183 187 180 179 177 186 199 194
149 150 150 148 146 148 144 120 32 1 348 340 338 339 347 352 349 348 349 349 343 334 324 318 314 313 312 311 312 310 306 308 310 315 319 317 311 308 307 306 296 275 264 268 275 261 256 243 229 226 218 216 208 189 191 192 189 188 187 189 187 183 179 177 178 178 180 189 179 179 188 190 187 181 181 185 186 186 185 180 175 183 186 195 173
151 147 145 148 151 153 145 131 74 8 351 346 345 346 352 356 352 359 353 344 332 327 324 320 316 314 313 310 309 311 310 308 310 316 318 317 315 314 315 310 304 299 279 267 267 267 260 258 241 227 225 219 214 192 187 192 190 188 190 193 190 187 182 176 179 178 185 183 182 184 186 193 189 183 181 182 182 188 187 177 183 190 196 166 138
116 131 149 142 141 141 134 120 81 30 8 355 351 353 353 350 354 357 349 337 327 327 323 319 314 315 314 312 312 316 313 310 315 320 321 321 321 317 314 310 304 300 291 271 252 265 269 266 265 239 227 225 216 202 182 194 192 190 191 197 193 192 184 179 180 185 184 188 188 186 188 189 188 182 181 181 182 185 186 176 188 186 152 143 161
137 129 127 150 138 135 132 126 95 61 29 5 357 360 3 352 355 347 342 334 331 326 322 317 315 313 315 314 312 319 320 318 318 319 319 320 325 324 320 316 307 297 284 272 259 246 263 272 273 261 243 232 211 210 193 190 196 194 195 199 203 195 187 186 180 182 187 186 184 186 182 175 183 182 181 180 181 182 179 185 182 167 159 160 152
90 95 112 121 109 112 125 118 97 69 49 26 13 8 4 1 353 343 335 334 333 329 325 322 319 319 318 318 319 317 319 322 320 319 320 321 327 330 322 321 318 303 294 278 261 247 236 259 267 259 269 246 225 200 201 192 191 196 198 204 210 212 189 194 188 191 185 181 175 175 174 176 180 178 177 177 180 177 180 182 171 169 161 152 145
94 81 75 73 88 99 113 103 74 50 52 45 34 36 13 1 349 341 337 337 335 331 327 326 329 325 320 322 319 317 320 327 323 319 320 326 328 333 329 326 322 311 296 282 268 249 234 231 242 249 251 245 226 213 198 198 194 195 197 202 211 210 192 184 186 191 178 175 170 168 170 174 175 174 174 175 177 179 182 176 170 160 150 150 151
82 73 60 60 73 73 85 86 52 31 27 36 34 44 37 3 341 336 337 335 333 332 327 322 323 325 323 322 320 321 325 324 321 319 317 321 327 330 331 325 318 310 305 293 278 259 244 236 233 238 243 243 234 240 214 193 198 201 203 203 205 207 189 189 185 174 177 167 168 170 167 172 172 173 166 168 171 184 185 173 162 155 158 158 159
74 54 40 47 55 60 66 64 35 18 17 17 20 26 20 356 344 341 337 333 331 328 325 323 328 325 324 325 326 328 327 326 326 323 320 321 325 331 328 325 320 316 308 301 290 270 249 237 239 233 233 234 233 236 229 200 188 199 203 198 194 201 192 187 186 171 169 174 173 169 171 169 172 171 170 171 174 173 167 160 157 164 164 164 165
57 42 39 53 46 47 56 51 29 15 11 11 8 8 7 355 346 346 338 332 325 332 328 321 323 323 325 329 328 328 329 326 326 324 323 324 327 329 329 324 323 321 315 305 295 281 258 242 240 235 228 227 227 234 229 212 204 200 210 202 191 180 180 185 186 173 173 166 158 148 144 138 142 143 156 145 148 156 166 160 165 171 169 167 171
51 43 43 46 40 51 54 40 23 15 10 5 4 2 4 355 352 345 343 339 335 327 322 321 327 327 325 329 328 327 327 324 321 321 315 313 319 321 318 313 312 315 311 304 296 282 276 266 254 241 229 228 230 230 227 220 225 216 219 209 196 191 177 182 187 164 142 133 138 141 140 150 155 158 163 167 160 159 169 169 165 169 166 163 162
46 51 48 44 46 51 42 24 15 13 9 4 358 1 1 357 350 344 345 345 340 332 336 339 338 334 332 331 330 329 330 326 324 322 319 311 300 299 298 303 312 311 302 283 270 270 274 285 270 253 235 234 229 236 219 209 214 226 255 260 262 253 217 180 159 152 147 152 167 160 167 164 166 170 175 175 171 168 165 165 174 173 166 166 170
36 44 40 34 39 37 29 25 14 10 3 1 356 360 360 354 351 344 346 344 343 336 335 339 341 338 335 329 327 327 327 326 321 320 315 315 319 322 314 304 287 289 296 300 296 269 263 264 264 273 255 235 251 259 170 196 209 214 218 235 244 229 189 164 156 142 150 163 166 161 173 174 175 180 184 182 173 169 171 169 172 174 176 175 174